Weather History for Nanaimo, BC

Change the Weather History Date:

Tuesday, November 27, 2012

  Actual Average Record
Temperature  
Mean Temperature 24 °F -  
Max Temperature 39 °F 44 °F 55 °F (2011)
Min Temperature 9 °F 33 °F 9 °F (2012)
Degree Days  
Heating Degree Days 41    
Moisture  
Dew Point 28 °F    
Average Humidity 84    
Maximum Humidity 100    
Minimum Humidity 30    
Precipitation  
Precipitation 0.00 in - - ()
Sea Level Pressure  
Sea Level Pressure 30.10 in    
Wind  
Wind Speed 1 mph ()    
Max Wind Speed 7 mph    
Max Gust Speed -    
Visibility 15.0 miles    
Events      
Averages and records for this station are not official NWS values.
T = Trace of Precipitation, MM = Missing Value Source: Averaged Metar Reports

Daily Weather History Graph

Daily Weather History Graph

Search for Another Location

Airport:

Trip Planner

Search our weather history database for the weather conditions in past years. The results will help you decide how hot, cold, wet, or windy it might be!

Date:

Astronomy

Nov. 27, 2012 Rise Set
Actual Time 7:43 AM PST 4:22 PM PST
Civil Twilight 7:07 AM PST 4:58 PM PST
Nautical Twilight 6:28 AM PST 5:38 PM PST
Astronomical Twilight 5:50 AM PST 6:16 PM PST
Moon 3:58 PM PST (11/27) 6:52 AM PST (11/27)
Length of Visible Light 9h 50m
Length of Day
8h 38m
Waxing Gibbous, 99% of the Moon is Illuminated
Nov 27
Waxing Gibbous
Nov 28
Full
Dec 6
Last Quarter
Dec 13
New
Dec 19
First Quarter

Hourly Weather History & Observations

Time (PST) Temp. Windchill Dew Point Humidity Pressure Visibility Wind Dir Wind Speed Gust Speed Precip Events Conditions
4:00 AM 13 °F - 8 °F 70% 30.23 in - West 4.6 mph - -  
6:00 AM 30.2 °F - 28.4 °F 93% 30.10 in 15.0 mi Calm Calm - N/A   Overcast
7:00 AM 30.2 °F - 28.4 °F 93% 30.10 in 15.0 mi Calm Calm - N/A   Overcast
8:00 AM 30.2 °F - 28.4 °F 93% 30.10 in 30.0 mi Calm Calm - N/A   Overcast
9:00 AM 32.0 °F - 30.2 °F 93% 30.12 in 30.0 mi Calm Calm - N/A   Overcast
10:00 AM 26 °F - 7 °F 30% 30.25 in - WNW 6.9 mph - -  
10:00 AM 33.8 °F - 32.0 °F 93% 30.10 in 30.0 mi Calm Calm - N/A   Overcast
11:00 AM 37.4 °F - 35.6 °F 93% 30.10 in 30.0 mi Calm Calm - N/A   Overcast
12:00 PM 39.2 °F - 35.6 °F 87% 30.08 in 30.0 mi Calm Calm - N/A   Overcast
1:00 PM 41.0 °F - 35.6 °F 81% 30.06 in 30.0 mi WNW 2.3 mph - N/A   Overcast
2:00 PM 44.6 °F 43.1 °F 35.6 °F 71% 30.04 in 30.0 mi South 3.5 mph - N/A   Overcast
4:00 PM 23 °F - 11 °F 46% 30.30 in - West 3.5 mph - -  
4:00 PM 39.2 °F - 35.6 °F 87% 30.01 in 30.0 mi Calm Calm - N/A   Overcast
5:00 PM 37.4 °F - 35.6 °F 93% 30.01 in 30.0 mi Calm Calm - N/A   Overcast
6:00 PM 35.6 °F 32.8 °F 33.8 °F 93% 30.00 in 30.0 mi WSW 3.5 mph - N/A   Overcast
7:00 PM 33.8 °F - 33.8 °F 100% 29.99 in 30.0 mi Calm Calm - N/A   Overcast
8:00 PM 35.6 °F - 33.8 °F 93% 29.98 in 30.0 mi Calm Calm - N/A   Overcast
9:00 PM 35.6 °F - 35.6 °F 100% 29.97 in 30.0 mi Calm Calm - N/A   Overcast
10:00 PM 18 °F - 15 °F 82% 30.29 in - SE 4.6 mph - -